User: anonymous   Login
Location: Mercogliano
(40.9167°N, 14.7333°E)
Time: 03:01:20
(UTC+00:00)
Language:

X-37B - Orbit

View from above orbital plane
View from above orbital plane
View from above satellite
View from above satellite

Ground track
Ground track

The orbit data is extracted from the following two-line orbital elements,

1 45606U 20029A   21022.76959148 0.00000000  00000-0  00000-0 0    03
2 45606  45.0610 328.4208 0006000 326.0447  33.9549 15.60044763    07
Epoch (UTC): 22 January 2021 18:28:12
Eccentricity: 0.0006000
inclination: 45.0610°
perigee height: 383 km
apogee height: 391 km
right ascension of ascending node: 328.4208°
argument of perigee: 326.0447°
revolutions per day: 15.60044763
mean anomaly at epoch: 33.9549°
orbit number at epoch: 0

The dashed part of the orbit path shows where the satellite is in the earth's shadow,  

DLR